CW1708 Warrington PA US current weather conditions

sailwx.info

Wind from 349 at 1 knots gusting 6

Air temperature 2.8° C
Dewpoint -3.6° C

Last reported at 2020-Jan-28 23:09 UTC.
Time now 2020-Jan-29 00:11 UTC

Location: N 40°15' W 075°08'.
View on Google Maps.

See reports from other nearby stations

  
Tides and Currents Weather Stations Pressure Air Temp Water Temp Dewpoint Dewpoint Depression Visibility Wind Speed Wind Dir Waves Ship Positions
date/time (UTC)wind fromknots sea level pressurealtimeterstation pressurevisibilityair tempwater tempwave heightnotes
2020-Jan-28 23:09 349 1 gusting 6 2.8
2020-Jan-28 23:04 333 1 gusting 6 2.8
2020-Jan-28 22:59 005 1 gusting 6 2.8
2020-Jan-28 22:54 327 1 gusting 6 2.8
2020-Jan-28 22:49 012 1 gusting 4 3.3
2020-Jan-28 22:44 009 1 gusting 6 3.3
2020-Jan-28 22:39 321 1 gusting 6 3.3
2020-Jan-28 22:34 298 1 gusting 8 3.3
2020-Jan-28 22:29 296 1 gusting 8 3.3
2020-Jan-28 22:24 013 1 gusting 6 3.3
2020-Jan-28 22:19 320 1 gusting 6 3.3
2020-Jan-28 22:14 3.3
2020-Jan-28 22:09 298 1 gusting 4 3.3
2020-Jan-28 22:04 304 1 gusting 6 3.3
2020-Jan-28 21:59 323 1 gusting 6 3.3
2020-Jan-28 21:54 348 0 gusting 5 3.3
2020-Jan-28 21:49 005 1 gusting 7 3.3
2020-Jan-28 21:44 331 2 gusting 7 3.3
2020-Jan-28 21:39 3.3
2020-Jan-28 21:34 3.3
2020-Jan-28 21:29 355 1 gusting 6 3.9
2020-Jan-28 21:24 341 0 gusting 6 3.9
2020-Jan-28 21:19 023 0 gusting 4 3.9
2020-Jan-28 21:14 302 0 gusting 7 3.9
2020-Jan-28 21:09 345 1 gusting 7 3.9
2020-Jan-28 21:04 321 1 gusting 7 3.9
2020-Jan-28 20:59 355 1 gusting 6 3.9
2020-Jan-28 20:54 005 1 gusting 6 3.9
2020-Jan-28 20:49 355 1 gusting 5 3.9
2020-Jan-28 20:44 138 1 gusting 6 3.9
2020-Jan-28 20:39 015 1 gusting 6 3.9
2020-Jan-28 20:34 346 1 gusting 5 3.9
2020-Jan-28 20:29 068 1 gusting 6 3.9
2020-Jan-28 20:24 343 2 gusting 6 3.9
2020-Jan-28 20:19 355 2 gusting 6 3.9
2020-Jan-28 20:14 013 1 gusting 6 3.9
2020-Jan-28 20:09 040 1 gusting 7 3.9
2020-Jan-28 20:04 338 1 gusting 7 3.9
2020-Jan-28 19:59 034 1 gusting 5 3.9
2020-Jan-28 19:54 112 1 gusting 4 3.9
2020-Jan-28 19:48 005 1 gusting 6 3.9
2020-Jan-28 19:43 340 1 gusting 6 3.9
2020-Jan-28 19:38 344 1 gusting 5 3.9
2020-Jan-28 19:33 009 1 gusting 7 3.9
2020-Jan-28 19:28 333 2 gusting 7 3.9
2020-Jan-28 19:23 022 2 gusting 6 3.9
2020-Jan-28 19:18 344 2 gusting 5 3.9
2020-Jan-28 19:13 010 2 gusting 7 3.9
2020-Jan-28 19:08 026 2 gusting 7 3.3
2020-Jan-28 19:03 012 2 gusting 6 3.3
2020-Jan-28 18:58 011 2 gusting 6 3.3
2020-Jan-28 18:53 319 2 gusting 8 3.3
2020-Jan-28 18:48 009 2 gusting 8 3.3
2020-Jan-28 18:43 327 1 gusting 11 3.3
2020-Jan-28 18:38 303 2 gusting 11 3.3
2020-Jan-28 18:33 314 2 gusting 7 3.3
2020-Jan-28 18:28 355 1 gusting 6 3.9
2020-Jan-28 18:23 351 0 gusting 5 3.9
2020-Jan-28 18:18 012 1 gusting 4 3.9
2020-Jan-28 18:13 039 2 gusting 6 3.3
2020-Jan-28 18:08 316 1 gusting 6 3.3
2020-Jan-28 18:03 355 1 gusting 6 3.3
2020-Jan-28 17:58 012 2 gusting 6 3.3
2020-Jan-28 17:53 322 2 gusting 6 3.3
2020-Jan-28 17:48 325 1 gusting 6 3.3
2020-Jan-28 17:43 014 1 gusting 5 3.3
2020-Jan-28 17:38 030 2 gusting 6 3.3
2020-Jan-28 17:33 221 1 gusting 6 3.3
2020-Jan-28 17:28 288 1 gusting 10 3.3
2020-Jan-28 17:23 355 2 gusting 10 3.3
2020-Jan-28 17:18 318 1 gusting 6 3.3
2020-Jan-28 17:13 355 1 gusting 6 3.3
2020-Jan-28 17:08 031 2 gusting 8 3.3
2020-Jan-28 17:03 306 2 gusting 8 3.3
2020-Jan-28 16:58 345 2 gusting 7 3.3
2020-Jan-28 16:53 3.3
2020-Jan-28 16:48 298 2 gusting 7 3.3
2020-Jan-28 16:43 355 2 gusting 7 3.3
2020-Jan-28 16:38 005 2 gusting 6 3.3
2020-Jan-28 16:33 013 2 gusting 8 3.3
2020-Jan-28 16:28 005 2 gusting 8 3.3
2020-Jan-28 16:23 322 1 gusting 6 3.3
2020-Jan-28 16:18 309 1 gusting 6 3.3
2020-Jan-28 16:13 322 1 gusting 7 3.3
2020-Jan-28 16:08 213 2 gusting 7 3.3
2020-Jan-28 16:03 021 2 gusting 6 3.3
2020-Jan-28 15:58 330 1 gusting 6 3.3
2020-Jan-28 15:53 308 0 gusting 4 3.3
2020-Jan-28 15:48 005 1 gusting 4 3.3
2020-Jan-28 15:43 339 1 gusting 6 3.3
2020-Jan-28 15:38 307 1 gusting 6 3.3
2020-Jan-28 15:33 062 1 gusting 6 3.3
2020-Jan-28 15:28 293 1 gusting 6 3.3
2020-Jan-28 15:23 351 2 gusting 7 3.3
2020-Jan-28 15:18 3.3
2020-Jan-28 15:13 309 1 gusting 5 3.3
2020-Jan-28 15:08 309 0 gusting 5 3.3
2020-Jan-28 15:03 313 0 gusting 5 3.3
2020-Jan-28 14:58 305 1 gusting 8 3.3
2020-Jan-28 14:53 319 2 gusting 8 3.3
2020-Jan-28 14:48 355 2 gusting 6 3.3
2020-Jan-28 14:43 315 2 gusting 6 3.3
2020-Jan-28 14:38 061 0 gusting 5 3.3
2020-Jan-28 14:33 355 0 gusting 4 3.3
2020-Jan-28 14:28 355 0 gusting 4 2.8
2020-Jan-28 14:23 300 1 gusting 5 2.8
2020-Jan-28 14:18 285 2 gusting 5 2.8
2020-Jan-28 14:13 355 1 gusting 7 2.8
2020-Jan-28 14:08 315 1 gusting 7 2.8
2020-Jan-28 14:03 275 0 gusting 5 2.8
2020-Jan-28 13:58 310 0 gusting 5 2.2
2020-Jan-28 13:53 306 1 gusting 4 2.2
2020-Jan-28 13:48 321 0 gusting 6 2.2
2020-Jan-28 13:43 247 0 gusting 6 2.2
2020-Jan-28 13:38 309 0 gusting 4 2.2
2020-Jan-28 13:33 311 0 gusting 4 2.2
2020-Jan-28 13:28 251 0 gusting 4 2.2
2020-Jan-28 13:23 286 0 gusting 4 2.2
2020-Jan-28 13:18 277 0 gusting 3 1.7
2020-Jan-28 13:13 330 0 gusting 5 1.7
2020-Jan-28 13:08 248 0 gusting 5 1.7
2020-Jan-28 13:03 319 1.7
2020-Jan-28 12:58 323 0 gusting 4 1.7
2020-Jan-28 12:53 321 0 gusting 4 1.7
2020-Jan-28 12:48 318 0 gusting 3 1.7
2020-Jan-28 12:43 331 0 gusting 3 1.7
2020-Jan-28 12:38 302 0 gusting 5 1.7
2020-Jan-28 12:33 319 1.7
2020-Jan-28 12:28 233 0 gusting 3 1.1
2020-Jan-28 12:23 295 0 gusting 3 1.1
2020-Jan-28 12:18 343 1.1
2020-Jan-28 12:13 332 1.1
2020-Jan-28 12:08 332 1.1
2020-Jan-28 12:03 332 1.1
2020-Jan-28 11:58 332 1.1
2020-Jan-28 11:53 327 1.1
2020-Jan-28 11:48 327 1.1
2020-Jan-28 11:43 319 1.1
2020-Jan-28 11:37 304 1.7
2020-Jan-28 11:32 242 1.7
2020-Jan-28 11:27 242 0 gusting 3 1.7
2020-Jan-28 11:22 320 0 gusting 3 1.7
2020-Jan-28 11:17 320 1.7
2020-Jan-28 11:12 223 0 gusting 4 1.7
2020-Jan-28 11:07 223 0 gusting 4 1.7
2020-Jan-28 11:02 340 1.7
2020-Jan-28 10:57 263 1.7
2020-Jan-28 10:52 259 1.7
2020-Jan-28 10:47 297 1.7
2020-Jan-28 10:42 311 1.7
2020-Jan-28 10:37 311 1.7
2020-Jan-28 10:32 315 1.7
2020-Jan-28 10:27 315 1.7
2020-Jan-28 10:22 287 1.7
2020-Jan-28 10:17 287 1.7
2020-Jan-28 10:12 281 1.7
2020-Jan-28 10:07 292 0 gusting 3 1.7
2020-Jan-28 10:02 309 1.7
2020-Jan-28 09:57 330 1.7
2020-Jan-28 09:52 264 1.7
2020-Jan-28 09:47 246 1.7
2020-Jan-28 09:42 266 1.7
2020-Jan-28 09:37 304 1.7
2020-Jan-28 09:32 315 1.7
2020-Jan-28 09:27 335 0 gusting 2 1.7
2020-Jan-28 09:22 355 0 gusting 2 1.7
2020-Jan-28 09:17 263 0 gusting 2 1.7
2020-Jan-28 09:12 282 0 gusting 4 1.7
2020-Jan-28 09:07 331 0 gusting 4 1.7
2020-Jan-28 09:02 336 0 gusting 4 1.7
2020-Jan-28 08:57 273 1.7
2020-Jan-28 08:52 261 1.7
2020-Jan-28 08:47 331 0 gusting 4 1.7
2020-Jan-28 08:42 286 0 gusting 4 1.7
2020-Jan-28 08:37 325 1.7
2020-Jan-28 08:32 325 1.7
2020-Jan-28 08:27 291 1.7
2020-Jan-28 08:22 341 1.7
2020-Jan-28 08:17 326 1.7
2020-Jan-28 08:12 314 1.7
2020-Jan-28 08:07 324 0 gusting 4 1.7
2020-Jan-28 08:02 346 1.7
2020-Jan-28 07:57 323 1.7
2020-Jan-28 07:52 323 2.2
2020-Jan-28 07:47 323 2.2
2020-Jan-28 07:41 324 2.2
2020-Jan-28 07:36 319 2.2
2020-Jan-28 07:31 319 2.2
2020-Jan-28 07:26 319 2.2
2020-Jan-28 07:21 319 2.2
2020-Jan-28 07:16 319 0 gusting 2 2.2
2020-Jan-28 07:11 321 0 gusting 2 2.2
2020-Jan-28 07:06 294 0 gusting 4 2.2
2020-Jan-28 07:01 187 0 gusting 4 2.2
2020-Jan-28 06:56 333 0 gusting 6 2.2
2020-Jan-28 06:51 336 2.2
2020-Jan-28 06:46 078 0 gusting 2 2.2
2020-Jan-28 06:41 234 0 gusting 2 2.2
2020-Jan-28 06:36 355 2.2
2020-Jan-28 06:31 024 2.2
2020-Jan-28 06:26 005 2.2
2020-Jan-28 06:21 309 2.2
2020-Jan-28 06:16 312 2.2
2020-Jan-28 06:11 312 2.2
2020-Jan-28 06:06 311 2.2
2020-Jan-28 06:01 311 2.2
2020-Jan-28 05:51 296 2.2
2020-Jan-28 05:46 286 2.2
2020-Jan-28 05:41 244 2.2
2020-Jan-28 05:36 244 2.2
2020-Jan-28 05:31 244 2.2
2020-Jan-28 05:26 244 2.8
2020-Jan-28 05:21 297 2.8
2020-Jan-28 05:16 297 2.8
2020-Jan-28 05:06 018 2.8
2020-Jan-28 05:01 018 2.8
2020-Jan-28 04:56 032 2.8
2020-Jan-28 04:51 355 2.8
2020-Jan-28 04:46 355 0 gusting 3 2.8
2020-Jan-28 04:41 355 0 gusting 4 3.3
2020-Jan-28 04:36 016 1 gusting 5 3.3
2020-Jan-28 04:31 3.3
2020-Jan-28 04:26 020 0 gusting 4 3.3
2020-Jan-28 04:21 300 3.3
2020-Jan-28 04:16 296 3.3
2020-Jan-28 04:11 296 3.3
2020-Jan-28 04:06 319 3.3
2020-Jan-28 04:01 319 0 gusting 2 3.3
2020-Jan-28 03:56 311 0 gusting 1 3.3
2020-Jan-28 03:51 308 3.3
2020-Jan-28 03:46 309 3.3
2020-Jan-28 03:41 263 3.3
2020-Jan-28 03:36 262 0 gusting 1 3.3
2020-Jan-28 03:31 305 3.3
2020-Jan-28 03:26 314 3.9
2020-Jan-28 03:21 283 3.9
2020-Jan-28 03:16 287 3.9
2020-Jan-28 03:11 285 3.9
2020-Jan-28 03:06 244 3.9
2020-Jan-28 03:01 309 0 gusting 3 3.9
2020-Jan-28 02:55 300 0 gusting 3 3.9
2020-Jan-28 02:50 256 0 gusting 3 3.9
2020-Jan-28 02:45 285 3.9
2020-Jan-28 02:40 224 3.9
2020-Jan-28 02:35 286 0 gusting 2 3.9
2020-Jan-28 02:30 290 0 gusting 2 3.9
2020-Jan-28 02:25 301 0 gusting 5 3.9
2020-Jan-28 02:20 240 0 gusting 5 3.9
2020-Jan-28 02:15 293 3.9
2020-Jan-28 02:10 293 3.9
2020-Jan-28 02:05 281 3.9
2020-Jan-28 02:00 281 3.9
2020-Jan-28 01:55 281 3.9
2020-Jan-28 01:50 281 3.9
2020-Jan-28 01:45 281 3.9
2020-Jan-28 01:40 281 3.9
2020-Jan-28 01:35 281 3.9
2020-Jan-28 01:30 035 0 gusting 3 3.9
2020-Jan-28 01:25 286 0 gusting 2 3.9
2020-Jan-28 01:20 288 3.9
2020-Jan-28 01:15 256 0 gusting 3 3.9
2020-Jan-28 01:10 260 3.9
2020-Jan-28 01:05 261 3.9
2020-Jan-28 01:00 261 0 gusting 4 3.9
2020-Jan-28 00:55 294 0 gusting 3 3.9
2020-Jan-28 00:50 270 0 gusting 3 3.9
2020-Jan-28 00:45 265 0 gusting 3 3.9
2020-Jan-28 00:40 266 0 gusting 4 3.9
2020-Jan-28 00:35 293 0 gusting 4 3.9
2020-Jan-28 00:30 240 1 gusting 4 3.9
2020-Jan-28 00:25 237 1 gusting 5 3.9
2020-Jan-28 00:20 261 1 gusting 5 3.9
2020-Jan-28 00:15 286 0 gusting 4 3.9
2020-Jan-28 00:10 245 0 gusting 4 3.9
2020-Jan-28 00:05 277 0 gusting 4 3.9
2020-Jan-28 00:00 301 0 gusting 3 3.9
2020-Jan-27 23:55 319 0 gusting 4 4.4
2020-Jan-27 23:50 313 0 gusting 4 4.4
2020-Jan-27 23:45 254 0 gusting 3 4.4
2020-Jan-27 23:40 316 0 gusting 3 4.4
2020-Jan-27 23:35 253 1 gusting 4 4.4
2020-Jan-27 23:30 300 1 gusting 5 4.4
2020-Jan-27 23:25 251 0 gusting 5 4.4
2020-Jan-27 23:20 275 0 gusting 3 4.4
2020-Jan-27 23:15 280 0 gusting 3 4.4
2020-Jan-27 23:10 269 1 gusting 4 4.4
2020-Jan-27 23:05 284 0 gusting 4 4.4
2020-Jan-27 23:00 284 0 gusting 3 4.4
2020-Jan-27 22:55 286 0 gusting 4 4.4
2020-Jan-27 22:50 249 0 gusting 4 4.4
2020-Jan-27 22:45 253 4.4
2020-Jan-27 22:40 277 4.4
2020-Jan-27 22:35 285 4.4
2020-Jan-27 22:30 342 0 gusting 3 4.4
2020-Jan-27 22:25 342 0 gusting 3 5.0
2020-Jan-27 22:20 323 0 gusting 3 5.0
2020-Jan-27 22:15 311 0 gusting 3 5.0
2020-Jan-27 22:10 309 0 gusting 3 5.0
2020-Jan-27 22:05 289 0 gusting 6 5.0
2020-Jan-27 22:00 264 0 gusting 6 5.0
2020-Jan-27 21:55 266 1 gusting 5 5.0
2020-Jan-27 21:50 247 1 gusting 7 5.0
2020-Jan-27 21:45 322 0 gusting 7 5.0
2020-Jan-27 21:40 250 1 gusting 6 5.0
2020-Jan-27 21:35 337 1 gusting 6 5.6
2020-Jan-27 21:30 241 2 gusting 6 5.6
2020-Jan-27 21:25 284 2 gusting 6 5.6
2020-Jan-27 21:20 319 2 gusting 6 5.6
2020-Jan-27 21:15 323 1 gusting 6 5.6
2020-Jan-27 21:10 323 1 gusting 6 5.6
2020-Jan-27 21:05 302 1 gusting 5 5.6
2020-Jan-27 21:00 264 0 gusting 5 5.6
2020-Jan-27 20:55 5.6
2020-Jan-27 20:50 292 3 gusting 8 5.6
2020-Jan-27 20:45 338 2 gusting 7 5.6
2020-Jan-27 20:40 298 1 gusting 7 5.6
2020-Jan-27 20:35 290 2 gusting 8 5.6
2020-Jan-27 20:30 290 2 gusting 8 5.6
2020-Jan-27 20:25 288 2 gusting 8 6.1
2020-Jan-27 20:20 6.1
2020-Jan-27 20:15 286 2 gusting 7 6.1
2020-Jan-27 20:10 234 2 gusting 7 6.1
2020-Jan-27 20:05 231 2 gusting 7 6.1
2020-Jan-27 20:00 355 1 gusting 7 6.1
2020-Jan-27 19:55 265 0 gusting 5 6.1
2020-Jan-27 19:50 333 1 gusting 5 6.1
2020-Jan-27 19:45 288 2 gusting 6 6.1
2020-Jan-27 19:40 271 2 gusting 6 6.1
2020-Jan-27 19:35 309 1 gusting 7 6.1
2020-Jan-27 19:30 277 1 gusting 7 5.6
2020-Jan-27 19:25 264 3 gusting 9 5.6
2020-Jan-27 19:19 274 3 gusting 9 5.6
2020-Jan-27 19:14 306 2 gusting 7 5.6
2020-Jan-27 19:09 306 2 gusting 8 5.6
2020-Jan-27 19:04 246 3 gusting 8 5.6
2020-Jan-27 18:59 298 3 gusting 7 5.6
2020-Jan-27 18:54 265 3 gusting 8 5.6
2020-Jan-27 18:49 232 3 gusting 8 5.6
2020-Jan-27 18:44 249 1 gusting 8 5.6
2020-Jan-27 18:39 220 1 gusting 8 6.1
2020-Jan-27 18:34 276 2 gusting 8 5.6
2020-Jan-27 18:29 278 2 gusting 6 5.6
2020-Jan-27 18:24 304 2 gusting 7 5.6
2020-Jan-27 18:19 277 2 gusting 7 5.6
2020-Jan-27 18:14 355 2 gusting 7 5.6
2020-Jan-27 18:09 284 2 gusting 7 5.6
2020-Jan-27 18:04 325 2 gusting 6 5.6
2020-Jan-27 17:59 290 2 gusting 6 5.0
2020-Jan-27 17:54 250 1 gusting 6 5.6
2020-Jan-27 17:49 215 1 gusting 8 5.0
2020-Jan-27 17:44 281 2 gusting 8 5.0
2020-Jan-27 17:39 327 2 gusting 9 5.0
2020-Jan-27 17:34 217 3 gusting 9 5.0
2020-Jan-27 17:29 249 2 gusting 10 5.0
2020-Jan-27 17:24 290 3 gusting 10 5.0
2020-Jan-27 17:19 239 2 gusting 9 5.0
2020-Jan-27 17:14 243 2 gusting 7 5.0
2020-Jan-27 17:09 248 3 gusting 8 5.0
2020-Jan-27 17:04 283 1 gusting 8 5.0
2020-Jan-27 16:59 298 2 gusting 6 5.0
2020-Jan-27 16:54 330 2 gusting 6 5.0
2020-Jan-27 16:49 294 2 gusting 6 5.0
2020-Jan-27 16:44 319 1 gusting 6 5.0
2020-Jan-27 16:39 265 2 gusting 10 5.0
2020-Jan-27 16:34 309 3 gusting 10 4.4
2020-Jan-27 16:29 250 3 gusting 9 4.4
2020-Jan-27 16:24 219 3 gusting 9 5.0
2020-Jan-27 16:19 207 3 gusting 10 5.0
2020-Jan-27 16:14 262 2 gusting 10 5.0
2020-Jan-27 16:09 266 2 gusting 9 5.0
2020-Jan-27 16:04 240 3 gusting 11 5.0
2020-Jan-27 15:59 258 3 gusting 11 5.0
2020-Jan-27 15:54 222 4 gusting 9 5.0
2020-Jan-27 15:49 296 5 gusting 12 4.4
2020-Jan-27 15:44 257 4 gusting 12 4.4
2020-Jan-27 15:39 298 4 gusting 9 4.4
2020-Jan-27 15:34 242 4 gusting 9 4.4
2020-Jan-27 15:29 288 3 gusting 8 4.4
2020-Jan-27 15:24 246 3 gusting 8 4.4
2020-Jan-27 15:19 321 3 gusting 8 4.4
2020-Jan-27 15:14 277 3 gusting 8 4.4
2020-Jan-27 15:09 256 2 gusting 7 4.4
2020-Jan-27 15:04 237 2 gusting 7 3.9
2020-Jan-27 14:59 302 2 gusting 8 3.9
2020-Jan-27 14:54 229 2 gusting 8 3.9
2020-Jan-27 14:49 259 2 gusting 6 3.9
2020-Jan-27 14:44 272 2 gusting 6 3.9
2020-Jan-27 14:39 248 2 gusting 6 3.3
2020-Jan-27 14:34 246 2 gusting 9 3.3
2020-Jan-27 14:29 246 2 gusting 9 3.3
2020-Jan-27 14:24 254 1 gusting 8 3.3
2020-Jan-27 14:19 258 2 gusting 6 3.3
2020-Jan-27 14:14 302 2 gusting 6 3.3
2020-Jan-27 14:09 270 1 gusting 6 3.3
2020-Jan-27 14:04 256 1 gusting 6 3.3
2020-Jan-27 13:59 254 1 gusting 6 3.3
2020-Jan-27 13:54 259 0 gusting 6 3.3
2020-Jan-27 13:49 261 1 gusting 5 3.3
2020-Jan-27 13:44 251 1 gusting 5 3.3
2020-Jan-27 13:39 233 0 gusting 4 2.8
2020-Jan-27 13:34 254 0 gusting 4 2.8
2020-Jan-27 13:29 254 2.2
2020-Jan-27 13:24 256 2.2
2020-Jan-27 13:19 199 0 gusting 4 2.2
2020-Jan-27 13:14 233 0 gusting 4 1.7
2020-Jan-27 13:09 218 1.7
2020-Jan-27 13:04 252 1.7
2020-Jan-27 12:59 252 1.7
2020-Jan-27 12:54 252 0 gusting 2 1.7
2020-Jan-27 12:49 252 1.7
2020-Jan-27 12:44 252 0 gusting 3 1.7
2020-Jan-27 12:39 252 0 gusting 3 1.7
2020-Jan-27 12:34 259 0 gusting 3 1.7
2020-Jan-27 12:29 292 0 gusting 3 1.7
2020-Jan-27 12:24 232 0 gusting 4 1.7
2020-Jan-27 12:19 245 0 gusting 4 1.7
2020-Jan-27 12:14 251 0 gusting 4 1.7
2020-Jan-27 12:09 250 0 gusting 4 1.7
2020-Jan-27 12:04 265 0 gusting 4 1.7
2020-Jan-27 11:59 252 0 gusting 2 1.7
2020-Jan-27 11:54 261 0 gusting 3 1.7
2020-Jan-27 11:49 267 0 gusting 3 1.7
2020-Jan-27 11:44 244 0 gusting 2 1.7
2020-Jan-27 11:39 244 0 gusting 2 1.7
2020-Jan-27 11:34 263 0 gusting 6 1.7
2020-Jan-27 11:29 263 0 gusting 6 1.7
2020-Jan-27 11:24 248 0 gusting 3 1.7
2020-Jan-27 11:19 267 0 gusting 4 1.7
2020-Jan-27 11:14 238 1 gusting 4 1.7
2020-Jan-27 11:09 232 1 gusting 3 1.7
2020-Jan-27 11:04 250 1 gusting 6 1.7
2020-Jan-27 10:59 251 1 gusting 6 1.7
2020-Jan-27 10:54 246 1 gusting 5 1.7
2020-Jan-27 10:49 278 1 gusting 5 1.7
2020-Jan-27 10:44 257 1 gusting 5 1.7
2020-Jan-27 10:39 247 1 gusting 4 1.7
2020-Jan-27 10:34 254 1 gusting 6 1.7
2020-Jan-27 10:29 257 1 gusting 6 1.7
2020-Jan-27 10:24 283 1 gusting 6 1.7
2020-Jan-27 10:19 278 1 gusting 6 1.7
2020-Jan-27 10:14 245 0 gusting 6 1.7
2020-Jan-27 10:09 245 0 gusting 6 1.7
2020-Jan-27 10:04 259 1 gusting 5 1.7
2020-Jan-27 09:59 258 1 gusting 5 1.7
2020-Jan-27 09:54 246 1 gusting 5 1.7
2020-Jan-27 09:49 251 1 gusting 5 1.7
2020-Jan-27 09:44 260 1 gusting 6 1.7
2020-Jan-27 09:39 259 1 gusting 6 1.7
2020-Jan-27 09:34 249 1 gusting 5 1.7
2020-Jan-27 09:29 227 0 gusting 5 1.1
2020-Jan-27 09:24 250 0 gusting 6 1.1
2020-Jan-27 09:19 261 1 gusting 5 1.1
2020-Jan-27 09:14 294 0 gusting 4 1.1
2020-Jan-27 09:09 252 0 gusting 4 1.1
2020-Jan-27 09:04 238 0 gusting 3 1.1
2020-Jan-27 08:59 250 0 gusting 3 1.1
2020-Jan-27 08:54 259 1.1
2020-Jan-27 08:48 259 1.1
2020-Jan-27 08:43 259 1.1
2020-Jan-27 08:39 259 0 gusting 3 1.1
2020-Jan-27 08:33 232 0 gusting 3 1.1
2020-Jan-27 08:29 265 0 gusting 4 1.1
2020-Jan-27 08:23 266 0 gusting 4 1.1
2020-Jan-27 08:18 223 1 gusting 6 1.1
2020-Jan-27 08:13 244 1 gusting 6 1.1
2020-Jan-27 08:08 250 1 gusting 4 1.1
2020-Jan-27 08:03 265 1 gusting 3 1.1
2020-Jan-27 07:58 244 0 gusting 3 1.1
2020-Jan-27 07:53 252 0 gusting 2 1.1
2020-Jan-27 07:48 254 0 gusting 3 1.1
2020-Jan-27 07:43 248 0 gusting 5 1.1
2020-Jan-27 07:38 250 0 gusting 5 1.1
2020-Jan-27 07:33 252 0 gusting 3 1.1
2020-Jan-27 07:28 257 0 gusting 3 1.1
2020-Jan-27 07:23 302 0 gusting 3 1.1
2020-Jan-27 07:18 243 1 gusting 4 1.1
2020-Jan-27 07:13 254 1 gusting 4 1.1
2020-Jan-27 07:08 225 0 gusting 4 1.1
2020-Jan-27 07:03 246 0 gusting 4 1.1
2020-Jan-27 06:58 261 0 gusting 3 0.6
2020-Jan-27 06:53 267 0 gusting 3 0.6
2020-Jan-27 06:48 255 0 gusting 3 0.6
2020-Jan-27 06:43 255 0.6
2020-Jan-27 06:38 267 0.6
2020-Jan-27 06:33 267 0.6
2020-Jan-27 06:28 270 0 gusting 2 1.1
2020-Jan-27 06:23 288 0 gusting 2 1.1
2020-Jan-27 06:18 302 0 gusting 3 1.1
2020-Jan-27 06:13 246 0 gusting 3 0.6
2020-Jan-27 06:08 250 0 gusting 2 0.6
2020-Jan-27 06:03 264 0.6
2020-Jan-27 05:58 264 1.1
2020-Jan-27 05:53 221 1.1
2020-Jan-27 05:48 265 0 gusting 1 1.1
2020-Jan-27 05:43 254 1.1
2020-Jan-27 05:38 253 1.1
2020-Jan-27 05:33 248 1.1
2020-Jan-27 05:28 263 1.1
2020-Jan-27 05:23 252 0 gusting 3 1.1
2020-Jan-27 05:18 249 1.1
2020-Jan-27 05:13 249 1.1
2020-Jan-27 05:08 249 0 gusting 4 1.1
2020-Jan-27 05:03 258 0 gusting 3 1.1
2020-Jan-27 04:58 256 0 gusting 2 1.1
2020-Jan-27 04:53 254 0 gusting 2 1.1
2020-Jan-27 04:48 246 1.1
2020-Jan-27 04:43 247 1.1
2020-Jan-27 04:38 247 1.1
2020-Jan-27 04:33 247 0 gusting 3 1.1
2020-Jan-27 04:28 241 1.7
2020-Jan-27 04:23 282 0 gusting 2 1.7
2020-Jan-27 04:18 282 0 gusting 2 1.7
2020-Jan-27 04:13 261 0 gusting 2 1.7
2020-Jan-27 04:08 251 0 gusting 2 1.7
2020-Jan-27 04:03 256 0 gusting 3 1.7
2020-Jan-27 03:58 246 1 gusting 3 1.7
2020-Jan-27 03:53 288 0 gusting 3 1.7
2020-Jan-27 03:48 237 0 gusting 4 1.7
2020-Jan-27 03:43 253 0 gusting 4 1.7
2020-Jan-27 03:38 278 0 gusting 4 1.7
2020-Jan-27 03:33 304 0 gusting 4 1.7
2020-Jan-27 03:28 249 0 gusting 2 1.7
2020-Jan-27 03:23 249 1.7
2020-Jan-27 03:18 239 0 gusting 3 1.7
2020-Jan-27 03:13 234 0 gusting 3 2.2
2020-Jan-27 03:08 273 0 gusting 4 2.2
2020-Jan-27 03:03 250 0 gusting 4 2.2
2020-Jan-27 02:58 249 0 gusting 4 2.2
2020-Jan-27 02:53 239 1 gusting 4 2.2
2020-Jan-27 02:48 267 1 gusting 4 2.2
2020-Jan-27 02:43 245 0 gusting 3 1.7
2020-Jan-27 02:38 265 1.7
2020-Jan-27 02:33 265 1.7
2020-Jan-27 02:28 265 1.7
2020-Jan-27 02:23 265 1.7
2020-Jan-27 02:18 265 2.2
2020-Jan-27 02:13 265 2.2
2020-Jan-27 02:08 265 2.2
2020-Jan-27 02:03 265 2.2
2020-Jan-27 01:58 265 1.7
2020-Jan-27 01:53 265 2.2
2020-Jan-27 01:48 265 2.2
2020-Jan-27 01:43 265 2.8
2020-Jan-27 01:38 265 2.8
2020-Jan-27 01:33 265 2.8
2020-Jan-27 01:27 265 2.8
2020-Jan-27 01:23 265 2.8
2020-Jan-27 01:17 260 3.3
2020-Jan-27 01:12 260 0 gusting 4 3.3
2020-Jan-27 01:07 294 0 gusting 4 3.3
2020-Jan-27 01:02 273 0 gusting 3 3.3
2020-Jan-27 00:57 260 0 gusting 5 3.3
2020-Jan-27 00:52 274 0 gusting 6 3.3
2020-Jan-27 00:47 236 0 gusting 6 3.3
2020-Jan-27 00:42 259 0 gusting 3 3.3
2020-Jan-27 00:37 278 0 gusting 3 3.3
2020-Jan-27 00:32 273 3.3
2020-Jan-27 00:27 282 3.3
2020-Jan-27 00:22 282 3.3
2020-Jan-27 00:17 304 3.3
2020-Jan-27 00:12 349 3.3
2020-Jan-27 00:07 349 3.3
2020-Jan-27 00:02 349 3.3